CW0962 Weather Reports


Display with metric or nautical units.
time (UTC)temp
F
wind
direction
speed
MPH
gust
MPH
rain 1hr
in
rain 24hr
in
rain mn
in
humidity
%
barometer
mb
20260906124959 64 355 2.0 6.0 0.01 0.01 0.01 84 1012.8
20260906124509 63 340 2.0 6.0 0.01 0.01 0.01 85 1012.7
20260906124005 63 350 2.0 6.0 0.01 0.01 0.01 86 1012.7
20260906123508 62 350 2.0 6.0 0.01 0.01 0.01 86 1012.8
20260906123010 62 348 2.0 6.0 0.01 0.01 0.01 86 1012.7
20260906122507 62 348 3.0 5.0 0.01 0.01 0.01 86 1012.6
20260906122018 62 348 3.0 5.0 0.01 0.01 0.01 85 1012.5
20260906121500 62 355 2.0 5.0 0.01 0.01 0.01 85 1012.5
20260906120005 61 350 2.0 5.0 0.01 0.01 0.01 85 1012.4
20260906115006 61 355 2.0 6.0 0.00 0.00 0.00 84 1012.3
20260906114511 61 350 1.0 2.0 0.00 0.00 0.00 84 1012.3
20260906114000 61 350 1.0 3.0 0.00 0.00 0.00 84 1012.3
20260906113036 61 350 1.0 5.0 0.00 0.00 0.00 83 1012.2
20260906112505 61 350 1.0 5.0 0.00 0.00 0.00 83 1012.1
20260906111511 61 350 2.0 5.0 0.00 0.00 0.00 83 1012.1
20260906111029 61 350 2.0 5.0 0.00 0.00 0.00 83 1012.1
20260906110531 60 350 1.0 5.0 0.00 0.00 0.00 83 1012.0
20260906110007 61 348 1.0 5.0 0.00 0.00 0.00 83 1012.0
20260906105523 61 348 2.0 5.0 0.00 0.00 0.00 83 1012.0
20260906104503 61 350 2.0 5.0 0.00 0.00 0.00 83 1011.9
20260906104025 61 351 2.0 5.0 0.00 0.00 0.00 82 1011.9
20260906103512 61 351 3.0 5.0 0.00 0.00 0.00 82 1011.9
20260906102500 61 355 1.0 4.0 0.00 0.00 0.00 81 1011.4
20260906102005 61 355 1.0 2.0 0.00 0.00 0.00 80 1011.2
20260906101505 61 355 0.0 2.0 0.00 0.00 0.00 80 1011.1
20260906101003 62 360 1.0 5.0 0.00 0.00 0.00 80 1011.2
20260906100507 62 360 1.0 6.0 0.00 0.00 0.00 80 1011.4
20260906100013 62 360 2.0 6.0 0.00 0.00 0.00 80 1011.5
20260906095002 62 10 2.0 6.0 0.00 0.00 0.00 79 1011.5
20260906094021 62 355 1.0 6.0 0.00 0.00 0.00 78 1011.4
20260906093459 62 360 2.0 7.0 0.00 0.00 0.00 79 1011.4
20260906093007 62 355 3.0 8.0 0.00 0.00 0.00 79 1011.3
20260906092502 62 360 3.0 8.0 0.00 0.00 0.00 80 1011.3
20260906092004 62 355 2.0 5.0 0.00 0.00 0.00 79 1011.2
20260906091504 62 355 1.0 5.0 0.00 0.00 0.00 80 1011.2
20260906091004 62 355 1.0 5.0 0.00 0.00 0.00 80 1011.1
20260906090505 62 351 2.0 5.0 0.00 0.00 0.00 80 1010.9
20260906085503 63 355 3.0 7.0 0.00 0.00 0.00 80 1011.0
20260906085001 63 355 2.0 7.0 0.00 0.00 0.00 80 1010.9
20260906084502 63 355 2.0 5.0 0.00 0.00 0.00 79 1010.7
20260906084004 63 355 1.0 5.0 0.00 0.00 0.00 79 1010.7
20260906083503 63 355 2.0 5.0 0.00 0.00 0.00 80 1010.6
20260906082507 63 355 1.0 4.0 0.00 0.00 0.00 79 1010.5
20260906082023 63 355 1.0 4.0 0.00 0.00 0.00 79 1010.6
20260906081459 63 355 2.0 4.0 0.00 0.00 0.00 80 1010.6
20260906080959 63 355 2.0 6.0 0.00 0.00 0.00 80 1010.6
20260906080508 63 355 2.0 6.0 0.00 0.00 0.00 79 1010.6
20260906075959 63 351 2.0 5.0 0.00 0.00 0.00 79 1010.5
20260906075002 63 355 2.0 4.0 0.00 0.00 0.00 79 1010.5
20260906074508 63 355 2.0 6.0 0.00 0.00 0.00 79 1010.5
20260906074006 63 355 2.0 6.0 0.00 0.00 0.00 79 1010.4
20260906073458 63 360 2.0 5.0 0.00 0.00 0.00 79 1010.4
20260906072527 63 350 1.0 5.0 0.00 0.00 0.00 79 1010.4
20260906072006 63 360 2.0 5.0 0.00 0.00 0.00 79 1010.4
20260906071511 63 360 2.0 5.0 0.00 0.00 0.00 79 1010.4
20260906071024 63 355 2.0 5.0 0.00 0.00 0.00 79 1010.5
20260906070503 63 355 1.0 5.0 0.00 0.00 0.00 79 1010.4
20260906070006 63 5 1.0 5.0 0.00 0.00 0.00 80 1010.4
20260906065500 63 5 1.0 5.0 0.00 0.00 0.00 80 1010.4
20260906065021 63 5 2.0 5.0 0.00 0.00 0.00 80 1010.4
20260906064505 63 5 1.0 3.0 0.00 0.00 0.00 80 1010.4
20260906064004 63 88 1.0 4.0 0.00 0.00 0.00 80 1010.4
20260906062959 63 89 1.0 4.0 0.00 0.00 0.00 80 1010.4
20260906062524 63 89 1.0 4.0 0.00 0.00 0.00 80 1010.4
20260906061501 64 355 1.0 3.0 0.00 0.00 0.00 80 1010.5
20260906061010 64 355 1.0 4.0 0.00 0.00 0.00 79 1010.4
20260906060459 64 355 1.0 3.0 0.00 0.00 0.00 79 1010.4
20260906060013 64 355 1.0 3.0 0.00 0.00 0.00 79 1010.4
20260906055458 64 355 1.0 2.0 0.00 0.00 0.00 80 1010.6
20260906055004 64 355 1.0 4.0 0.00 0.00 0.00 80 1010.6
20260906054459 64 355 1.0 3.0 0.00 0.00 0.00 80 1010.7
20260906054005 64 355 1.0 4.0 0.00 0.00 0.00 80 1010.7
20260906053508 64 355 2.0 6.0 0.00 0.00 0.00 80 1010.6
20260906053004 64 355 2.0 6.0 0.00 0.00 0.00 80 1010.7
20260906052513 64 360 2.0 6.0 0.00 0.00 0.00 80 1010.6
20260906052023 64 360 2.0 6.0 0.00 0.00 0.00 81 1010.7
20260906051459 64 351 1.0 3.0 0.00 0.00 0.00 81 1010.6
20260906051000 64 360 1.0 5.0 0.00 0.00 0.00 81 1010.7
20260906050501 64 360 1.0 5.0 0.00 0.00 0.00 81 1010.7
20260906050019 64 355 1.0 5.0 0.00 0.00 0.00 81 1010.7
20260906045506 64 355 2.0 5.0 0.00 0.00 0.00 81 1010.7
20260906044512 64 355 1.0 4.0 0.00 0.00 0.00 81 1010.6
20260906042502 63 355 1.0 4.0 0.00 0.00 0.00 81 1010.5
20260906041500 63 355 1.0 5.0 0.00 0.00 0.00 81 1010.5
20260906041002 63 355 1.0 4.0 0.00 0.00 0.00 81 1010.4
20260906040501 63 355 1.0 4.0 0.00 0.00 0.00 82 1010.4
20260906035519 63 355 2.0 5.0 0.00 0.00 0.00 82 1010.4
20260906035002 63 351 1.0 5.0 0.00 0.00 0.00 82 1010.3
20260906034505 63 342 1.0 4.0 0.00 0.00 0.00 82 1010.4
20260906033504 63 342 1.0 5.0 0.00 0.00 0.00 82 1010.4
20260906033011 63 342 1.0 5.0 0.00 0.00 0.00 82 1010.3
20260906032550 63 306 1.0 3.0 0.00 0.00 0.00 82 1010.3
20260906032010 63 306 1.0 2.0 0.00 0.00 0.00 82 1010.3
20260906031501 63 305 1.0 2.0 0.00 0.00 0.00 82 1010.3
20260906030518 63 305 0.0 4.0 0.00 0.00 0.00 82 1010.4
20260906025505 63 305 0.0 0.0 0.00 0.00 0.00 82 1010.4
20260906025009 64 305 0.0 0.0 0.00 0.00 0.00 81 1010.4
20260906024503 64 305 0.0 0.0 0.00 0.00 0.00 81 1010.4
20260906024005 64 305 0.0 0.0 0.00 0.00 0.00 81 1010.4
20260906023505 64 305 0.0 0.0 0.00 0.00 0.00 81 1010.4
20260906023024 64 305 0.0 0.0 0.00 0.00 0.00 81 1010.3
20260906022500 64 305 0.0 0.0 0.00 0.00 0.00 81 1010.2
20260906022003 64 305 0.0 0.0 0.00 0.00 0.00 81 1010.3
20260906021506 64 305 0.0 1.0 0.00 0.00 0.00 81 1010.2
20260906021006 64 305 0.0 1.0 0.00 0.00 0.00 81 1010.3
20260906020501 64 305 0.0 1.0 0.00 0.00 0.00 81 1010.3
20260906020028 64 305 0.0 4.0 0.00 0.00 0.00 81 1010.3
20260906015506 64 305 0.0 4.0 0.00 0.00 0.00 81 1010.3
20260906014501 64 295 0.0 2.0 0.00 0.00 0.00 81 1010.5
20260906014004 64 295 0.0 2.0 0.00 0.00 0.00 81 1010.5
20260906012503 64 295 0.0 1.0 0.00 0.00 0.00 80 1010.3
20260906011012 64 295 0.0 1.0 0.00 0.00 0.00 80 1010.1
20260906010502 64 294 0.0 1.0 0.00 0.00 0.00 80 1010.2
20260906010030 64 295 0.0 1.0 0.00 0.00 0.00 80 1010.2
20260906005511 64 295 0.0 2.0 0.00 0.00 0.00 81 1010.2
20260906005004 64 294 0.0 2.0 0.00 0.00 0.00 81 1010.2
20260906004502 64 294 0.0 2.0 0.00 0.00 0.00 81 1010.2
20260906004002 64 294 1.0 2.0 0.00 0.00 0.00 81 1010.2
20260906003505 64 294 1.0 2.0 0.00 0.00 0.00 81 1010.2
20260906002510 64 294 0.0 1.0 0.00 0.00 0.00 80 1010.0
20260906002035 64 295 0.0 2.0 0.00 0.00 0.00 80 1010.0
20260906000504 64 294 0.0 1.0 0.00 0.00 0.00 80 1009.8
20260906000036 64 294 0.0 2.0 0.00 0.00 0.00 80 1009.8
20260905235502 64 294 1.0 2.0 0.00 0.00 0.00 80 1009.8
20260905235024 64 294 1.0 2.0 0.00 0.00 0.00 79 1009.7
20260905234531 64 294 0.0 2.0 0.00 0.00 0.00 79 1009.7
20260905234026 64 294 0.0 1.0 0.00 0.00 0.00 79 1009.8
20260905233501 65 294 0.0 2.0 0.00 0.00 0.00 79 1009.7
20260905232508 65 294 0.0 2.0 0.00 0.00 0.00 78 1009.7
20260905231500 65 294 0.0 1.0 0.00 0.00 0.00 78 1009.6
20260905231001 65 294 0.0 1.0 0.00 0.00 0.00 78 1009.6
20260905230020 65 294 0.0 1.0 0.00 0.00 0.00 77 1009.6
20260905225514 65 294 1.0 4.0 0.00 0.00 0.00 77 1009.7
20260905225011 65 294 1.0 4.0 0.00 0.00 0.00 77 1009.7
20260905224011 65 200 0.0 2.0 0.00 0.00 0.00 77 1009.8
20260905223504 65 200 1.0 2.0 0.00 0.00 0.00 77 1009.9
20260905223002 65 302 1.0 2.0 0.00 0.00 0.00 76 1009.9
20260905222531 65 302 0.0 2.0 0.00 0.00 0.00 76 1009.8
20260905221510 65 302 1.0 4.0 0.00 0.00 0.00 75 1009.8
20260905221020 65 302 1.0 5.0 0.00 0.00 0.00 75 1009.7
20260905220523 66 302 1.0 5.0 0.00 0.00 0.00 75 1009.6
20260905220037 66 165 1.0 4.0 0.00 0.00 0.00 75 1009.5
20260905215459 66 82 1.0 5.0 0.00 0.00 0.00 75 1009.4
20260905215005 66 5 1.0 6.0 0.00 0.00 0.00 74 1009.3
20260905214502 66 360 1.0 6.0 0.00 0.00 0.00 74 1009.2
20260905214005 66 161 1.0 5.0 0.00 0.00 0.00 74 1009.2
20260905213502 66 52 1.0 5.0 0.00 0.00 0.00 74 1009.1
20260905213007 66 34 1.0 3.0 0.00 0.00 0.00 73 1009.2
20260905212502 67 130 1.0 4.0 0.00 0.00 0.00 73 1009.1
20260905212002 67 131 1.0 5.0 0.00 0.00 0.00 72 1009.1
20260905210959 68 69 1.0 5.0 0.00 0.00 0.00 72 1009.0
20260905210514 68 13 1.0 5.0 0.00 0.00 0.00 72 1009.0
20260905210041 68 16 2.0 5.0 0.00 0.00 0.00 72 1009.0
20260905205515 68 65 2.0 5.0 0.00 0.00 0.00 72 1009.1
20260905205011 69 63 2.0 6.0 0.00 0.00 0.00 72 1009.1
20260905204459 69 343 1.0 6.0 0.00 0.00 0.00 71 1009.0
20260905204000 69 175 2.0 5.0 0.00 0.00 0.00 72 1008.8
20260905203503 69 153 1.0 4.0 0.00 0.00 0.00 72 1008.8
20260905203022 69 159 1.0 3.0 0.00 0.00 0.00 72 1008.8
20260905202503 69 159 2.0 6.0 0.00 0.00 0.00 72 1008.8
20260905201503 69 69 1.0 6.0 0.00 0.00 0.00 72 1008.6
20260905201002 69 63 1.0 6.0 0.00 0.00 0.00 73 1008.6
20260905200522 69 192 1.0 5.0 0.00 0.00 0.00 72 1008.6
20260905200006 70 327 1.0 5.0 0.00 0.00 0.00 72 1008.7
20260905195503 70 196 1.0 5.0 0.00 0.00 0.00 71 1008.7
20260905195023 70 19 2.0 5.0 0.00 0.00 0.00 70 1008.8
20260905194513 71 144 2.0 5.0 0.00 0.00 0.00 70 1008.6
20260905193029 71 154 2.0 4.0 0.00 0.00 0.00 70 1008.8
20260905192506 72 157 2.0 5.0 0.00 0.00 0.00 70 1008.8
20260905192008 71 159 1.0 5.0 0.00 0.00 0.00 72 1008.7
20260905191507 71 13 2.0 5.0 0.00 0.00 0.00 73 1008.6
20260905191001 71 340 1.0 5.0 0.00 0.00 0.00 74 1008.7
20260905190510 70 327 1.0 6.0 0.00 0.00 0.00 74 1008.7
20260905190034 70 192 2.0 6.0 0.00 0.00 0.00 73 1008.6
20260905185501 70 302 2.0 5.0 0.00 0.00 0.00 75 1008.8
20260905185007 70 360 2.0 5.0 0.00 0.00 0.00 75 1008.7
20260905184503 70 333 2.0 5.0 0.00 0.00 0.00 75 1008.6
20260905184005 70 348 2.0 5.0 0.00 0.00 0.00 74 1008.7
20260905183512 71 38 1.0 5.0 0.00 0.00 0.00 75 1008.7
20260905182522 71 86 1.0 5.0 0.00 0.00 0.00 75 1008.7
20260905181506 71 207 3.0 7.0 0.00 0.00 0.00 73 1008.7
20260905181004 71 14 3.0 7.0 0.00 0.00 0.00 73 1008.7
20260905180514 72 46 2.0 8.0 0.00 0.00 0.00 72 1008.6
20260905175006 72 11 2.0 7.0 0.00 0.00 0.00 73 1008.4
20260905174513 72 348 3.0 7.0 0.00 0.00 0.00 72 1008.4
20260905174009 72 355 3.0 7.0 0.00 0.00 0.00 70 1008.3
20260905173501 72 360 2.0 5.0 0.00 0.00 0.00 70 1008.3
20260905173012 73 340 3.0 12.0 0.00 0.00 0.00 71 1008.4
20260905172503 72 360 3.0 12.0 0.00 0.00 0.00 71 1008.3
20260905171520 72 344 3.0 9.0 0.00 0.00 0.00 72 1008.2
20260905171012 72 360 3.0 7.0 0.00 0.00 0.00 74 1008.2
20260905170543 71 17 3.0 7.0 0.00 0.00 0.00 73 1008.1
20260905170033 71 355 3.0 7.0 0.00 0.00 0.00 74 1008.2
20260905165505 70 360 3.0 7.0 0.00 0.00 0.00 74 1008.2
20260905165004 70 360 2.0 6.0 0.00 0.00 0.00 73 1008.2
20260905163004 70 348 3.0 7.0 0.00 0.00 0.00 75 1008.0
20260905162505 70 9 3.0 7.0 0.00 0.00 0.00 73 1008.0
20260905162002 70 360 3.0 7.0 0.00 0.00 0.00 73 1008.0
20260905161501 71 15 3.0 8.0 0.00 0.00 0.00 73 1008.0
20260905161008 71 9 3.0 8.0 0.00 0.00 0.00 71 1008.0
20260905160007 71 29 2.0 8.0 0.00 0.00 0.00 72 1008.0
20260905155512 71 348 3.0 7.0 0.00 0.00 0.00 73 1008.0
20260905155008 72 15 3.0 7.0 0.00 0.00 0.00 71 1007.9
20260905154504 72 13 3.0 7.0 0.00 0.00 0.00 71 1007.9
20260905154010 73 347 3.0 7.0 0.00 0.00 0.00 69 1007.8
20260905153506 73 355 3.0 7.0 0.00 0.00 0.00 68 1007.7
20260905153014 74 5 2.0 7.0 0.00 0.00 0.00 67 1007.7
20260905152508 75 5 3.0 7.0 0.00 0.00 0.00 68 1007.6
20260905152037 75 355 3.0 8.0 0.00 0.00 0.00 68 1007.7
20260905151524 75 348 3.0 8.0 0.00 0.00 0.00 68 1007.8
20260905151006 75 342 3.0 7.0 0.00 0.00 0.00 67 1007.7
20260905150519 76 350 3.0 6.0 0.00 0.00 0.00 66 1007.7
20260905150022 76 345 3.0 6.0 0.00 0.00 0.00 65 1007.7
20260905145513 76 360 3.0 6.0 0.00 0.00 0.00 66 1007.7
20260905144526 76 9 3.0 7.0 0.00 0.00 0.00 67 1007.5
20260905144009 76 343 2.0 7.0 0.00 0.00 0.00 67 1007.5
20260905143515 76 348 2.0 6.0 0.00 0.00 0.00 67 1007.5
20260905143029 76 304 3.0 6.0 0.00 0.00 0.00 67 1007.4
20260905142509 76 342 3.0 6.0 0.00 0.00 0.00 67 1007.4
20260905142019 76 350 3.0 7.0 0.00 0.00 0.00 68 1007.4
20260905141505 76 350 2.0 7.0 0.00 0.00 0.00 67 1007.3
20260905141009 75 302 2.0 6.0 0.00 0.00 0.00 68 1007.4
20260905140500 75 332 2.0 7.0 0.00 0.00 0.00 67 1007.4
20260905140030 75 5 2.0 7.0 0.00 0.00 0.00 67 1007.5
20260905134501 75 338 3.0 6.0 0.00 0.00 0.00 68 1007.6
20260905134001 75 323 3.0 7.0 0.00 0.00 0.00 70 1007.5
20260905133516 74 333 2.0 7.0 0.00 0.00 0.00 71 1007.5
20260905133023 74 349 2.0 6.0 0.00 0.00 0.00 72 1007.3
20260905132500 74 350 3.0 6.0 0.00 0.00 0.00 72 1007.2
20260905131505 73 355 2.0 6.0 0.00 0.00 0.00 74 1007.1
20260905131023 73 360 3.0 6.0 0.00 0.00 0.00 75 1007.1
20260905130500 72 13 3.0 6.0 0.00 0.00 0.00 77 1007.1